Location: New Canada
(47.1017°N, 68.5042°W)
Time: 13:07:07
(UTC+00:00)

N. Korean satellite - Pass Details

Date: 07 December 2022
Orbit: 407 x 441 km, 97.3° (Epoch: 05 February)

Event Time Altitude Azimuth Distance (km) Brightness Sun altitude
Rises 09:14:22 0° 24° (NNE) 2,512 10.4 -28.3°
Reaches altitude 10° 09:16:43 10° 38° (NE) 1,623 9.6 -27.9°
Maximum altitude 09:19:37 24° 95° (E) 993 8.8 -27.4°
Drops below altitude 10° 09:22:27 10° 151° (SSE) 1,587 9.5 -26.9°
Sets 09:24:43 0° 165° (SSE) 2,442 10.4 -26.5°
